Location: Fundy National Park
(45.6138°N, 65.0316°W)
Time: 11:06:38
(UTC-04:00)

Tiangong - Pass Details

Date: 23 October 2021
Orbit: 380 x 384 km, 41.5° (Epoch: 04 December)

Event Time Altitude Azimuth Distance (km) Brightness Sun altitude
Rises 17:45:09 0° 229° (SW) 2,267 6.6 5.0°
Reaches altitude 10° 17:47:30 10° 213° (SSW) 1,414 5.0 4.6°
Drops below altitude 10° 17:52:34 10° 108° (ESE) 1,414 3.5 3.8°
Enters shadow 17:56:09 -4° 88° (E) 2,747 4.8 3.2°
Exits shadow 18:32:17 -78° 65° (ENE) 12,876 8.6 -2.8°
Maximum altitude 19:26:30 38° 177° (S) 606 2.0 -12.2°
